Tehachapi, CA

5:51 PM PDT on May 23, 2017 (GMT -0700)
Tehachapi Municipal

Weather History for KTSP - November, 2010

Change the Weather History Date:

Thursday, November 25, 2010

  Actual Average Record
Temperature  
Mean Temperature 31 °F -  
Max Temperature 41 °F 54 °F 68 °F (2012)
Min Temperature 21 °F 33 °F 24 °F (2016)
Degree Days  
Heating Degree Days 34    
Moisture  
Dew Point 8 °F    
Average Humidity 42    
Maximum Humidity 93    
Minimum Humidity 19    
Precipitation  
Precipitation 0.00 in - - ()
Sea Level Pressure  
Sea Level Pressure 30.21 in    
Wind  
Wind Speed 8 mph ()    
Max Wind Speed 22 mph    
Max Gust Speed 28 mph    
Visibility 9.5 miles    
Events      
Averages and records for this station are not official NWS values.
T = Trace of Precipitation, MM = Missing Value Source: Averaged Metar Reports

Daily Weather History Graph

Daily Weather History Graph

Search for Another Location

Airport or City:

Trip Planner

Search our weather history database for the weather conditions in past years. The results will help you decide how hot, cold, wet, or windy it might be!

Date:

Astronomy

Nov. 25, 2010 Rise Set
Actual Time 6:38 AM PST 4:43 PM PST
Civil Twilight 6:10 AM PST 5:10 PM PST
Nautical Twilight 5:39 AM PST 5:41 PM PST
Astronomical Twilight 5:09 AM PST 6:12 PM PST
Moon 8:45 PM PST (11/25) 10:11 AM PST (11/25)
Length of Visible Light 10h 59m
Length of Day
10h 04m
Waning Gibbous, 82% of the Moon is Illuminated
Nov 25
Waning Gibbous
Nov 28
Last Quarter
Dec 5
New
Dec 13
First Quarter
Dec 21
Full

Hourly Weather History & Observations

Time (PST) Temp. Windchill Dew Point Humidity Pressure Visibility Wind Dir Wind Speed Gust Speed Precip Events Conditions
12:15 AM 28.4 °F - 24.8 °F 86% 30.09 in 9.0 mi Calm Calm - N/A   Overcast
12:35 AM 28.4 °F - 24.8 °F 86% 30.09 in 10.0 mi Calm Calm - N/A   Overcast
12:55 AM 28.4 °F - 24.8 °F 86% 30.10 in 10.0 mi Calm Calm - N/A   Overcast
1:15 AM 28.4 °F - 24.8 °F 86% 30.10 in 10.0 mi Calm Calm - N/A   Overcast
1:35 AM 26.6 °F 21.2 °F 24.8 °F 93% 30.09 in 9.0 mi ESE 4.6 mph - N/A   Overcast
1:55 AM 26.6 °F 20.0 °F 23.0 °F 86% 30.10 in 8.0 mi ESE 5.8 mph - N/A   Overcast
2:15 AM 24.8 °F 19.1 °F 23.0 °F 93% 30.10 in 8.0 mi East 4.6 mph - N/A   Partly Cloudy
2:35 AM 24.8 °F 20.5 °F 23.0 °F 93% 30.10 in 8.0 mi ESE 3.5 mph - N/A   Clear
2:55 AM 23.0 °F - 21.2 °F 93% 30.11 in 8.0 mi Calm Calm - N/A   Clear
3:15 AM 23.0 °F - 19.4 °F 86% 30.11 in 8.0 mi North - - N/A   Clear
3:35 AM 21.2 °F - 19.4 °F 93% 30.11 in 7.0 mi Calm Calm - N/A   Clear
3:55 AM 21.2 °F - 19.4 °F 93% 30.11 in 9.0 mi Calm Calm - N/A   Clear
4:15 AM 23.0 °F 15.8 °F 19.4 °F 86% 30.11 in 10.0 mi ESE 5.8 mph - N/A   Clear
4:35 AM 24.8 °F 16.1 °F 19.4 °F 80% 30.11 in 10.0 mi East 8.1 mph - N/A   Clear
4:55 AM 24.8 °F 15.3 °F 17.6 °F 74% 30.12 in 10.0 mi East 9.2 mph - N/A   Clear
5:15 AM 26.6 °F 17.5 °F 15.8 °F 64% 30.12 in 10.0 mi East 9.2 mph - N/A   Clear
5:35 AM 26.6 °F 16.8 °F 14.0 °F 59% 30.14 in 10.0 mi East 10.4 mph - N/A   Clear
5:55 AM 26.6 °F 17.5 °F 14.0 °F 59% 30.16 in 10.0 mi East 9.2 mph - N/A   Clear
6:15 AM 26.6 °F 17.5 °F 12.2 °F 55% 30.17 in 10.0 mi ESE 9.2 mph - N/A   Clear
6:35 AM 26.6 °F 16.2 °F 10.4 °F 51% 30.17 in 10.0 mi ESE 11.5 mph - N/A   Clear
6:55 AM 28.4 °F 20.4 °F 8.6 °F 43% 30.18 in 10.0 mi ESE 8.1 mph 17.3 mph N/A   Clear
7:15 AM 28.4 °F 17.5 °F 6.8 °F 40% 30.18 in 9.0 mi SE 13.8 mph 17.3 mph N/A   Clear
7:35 AM 32.0 °F 22.5 °F 5.0 °F 32% 30.19 in 10.0 mi SE 12.7 mph 16.1 mph N/A   Clear
7:55 AM 32.0 °F 21.2 °F 5.0 °F 32% 30.21 in 10.0 mi SE 16.1 mph 20.7 mph N/A   Clear
8:15 AM 32.0 °F 21.2 °F 5.0 °F 32% 30.21 in 10.0 mi ESE 16.1 mph 24.2 mph N/A   Clear
8:35 AM 33.8 °F 22.5 °F 5.0 °F 30% 30.22 in 10.0 mi SE 19.6 mph 24.2 mph N/A   Clear
8:55 AM 35.6 °F 25.5 °F 1.4 °F 24% 30.23 in 10.0 mi SE 17.3 mph 21.9 mph N/A   Clear
9:15 AM 35.6 °F 25.2 °F 1.4 °F 24% 30.22 in 9.0 mi SE 18.4 mph 24.2 mph N/A   Clear
9:35 AM 37.4 °F 27.8 °F 1.4 °F 22% 30.23 in 10.0 mi SE 17.3 mph 23.0 mph N/A   Clear
10:15 AM 37.4 °F 26.9 °F 5.0 °F 26% 30.23 in 10.0 mi SE 20.7 mph 26.5 mph N/A   Clear
10:35 AM 37.4 °F 27.2 °F 5.0 °F 26% 30.24 in 8.0 mi SE 19.6 mph 24.2 mph N/A   Clear
10:55 AM 39.2 °F 30.2 °F 1.4 °F 21% 30.24 in 8.0 mi ESE 17.3 mph 24.2 mph N/A   Clear
11:15 AM 39.2 °F 30.2 °F 3.2 °F 22% 30.24 in 8.0 mi SE 17.3 mph 25.3 mph N/A   Clear
11:35 AM 39.2 °F 29.0 °F 3.2 °F 22% 30.23 in 7.0 mi SE 21.9 mph 27.6 mph N/A   Clear
11:55 AM 41.0 °F 32.2 °F 3.2 °F 21% 30.23 in 9.0 mi SE 18.4 mph 24.2 mph N/A   Clear
12:15 PM 41.0 °F 32.2 °F 1.4 °F 19% 30.23 in 10.0 mi ESE 18.4 mph - N/A   Clear
12:35 PM 41.0 °F 32.2 °F 3.2 °F 21% 30.22 in 10.0 mi SE 18.4 mph 21.9 mph N/A   Clear
12:55 PM 41.0 °F 32.5 °F 1.4 °F 19% 30.22 in 8.0 mi SE 17.3 mph 23.0 mph N/A   Clear
1:15 PM 41.0 °F 31.6 °F 1.4 °F 19% 30.22 in 7.0 mi SE 20.7 mph 24.2 mph N/A   Clear
1:55 PM 41.0 °F 31.9 °F 1.4 °F 19% 30.22 in 10.0 mi ESE 19.6 mph 24.2 mph N/A   Clear
2:15 PM 41.0 °F 32.8 °F 1.4 °F 19% 30.23 in 10.0 mi ESE 16.1 mph 23.0 mph N/A   Clear
2:35 PM 41.0 °F 32.5 °F 1.4 °F 19% 30.23 in 10.0 mi ESE 17.3 mph 23.0 mph N/A   Clear
2:55 PM 41.0 °F 33.5 °F 1.4 °F 19% 30.23 in 10.0 mi ESE 13.8 mph - N/A   Clear
3:15 PM 41.0 °F 32.8 °F 1.4 °F 19% 30.23 in 10.0 mi SE 16.1 mph 21.9 mph N/A   Clear
3:35 PM 39.2 °F 30.8 °F 1.4 °F 21% 30.23 in 10.0 mi ESE 15.0 mph - N/A   Clear
3:55 PM 39.2 °F 31.6 °F 3.2 °F 22% 30.24 in 10.0 mi ESE 12.7 mph - N/A   Clear
4:15 PM 37.4 °F 30.3 °F 3.2 °F 24% 30.24 in 10.0 mi SE 10.4 mph - N/A   Clear
4:35 PM 35.6 °F 27.5 °F 5.0 °F 28% 30.25 in 10.0 mi ESE 11.5 mph - N/A   Clear
4:55 PM 33.8 °F 25.8 °F 5.0 °F 30% 30.25 in 10.0 mi ESE 10.4 mph - N/A   Clear
5:15 PM 33.8 °F 27.0 °F 5.0 °F 30% 30.26 in 10.0 mi ESE 8.1 mph - N/A   Clear
5:35 PM 32.0 °F 24.8 °F 5.0 °F 32% 30.26 in 10.0 mi East 8.1 mph - N/A   Clear
5:55 PM 33.8 °F 25.3 °F 3.2 °F 28% 30.27 in 10.0 mi ESE 11.5 mph - N/A   Clear
6:15 PM 32.0 °F 22.5 °F 3.2 °F 30% 30.27 in 10.0 mi East 12.7 mph - N/A   Clear
6:35 PM 32.0 °F 23.6 °F 3.2 °F 30% 30.28 in 10.0 mi East 10.4 mph - N/A   Clear
6:55 PM 32.0 °F 23.0 °F 1.4 °F 27% 30.29 in 10.0 mi East 11.5 mph - N/A   Clear
7:15 PM 32.0 °F 23.0 °F 3.2 °F 30% 30.29 in 10.0 mi ESE 11.5 mph - N/A   Clear
7:35 PM 32.0 °F 23.6 °F 1.4 °F 27% 30.29 in 10.0 mi East 10.4 mph - N/A   Clear
7:55 PM 32.0 °F 23.6 °F 1.4 °F 27% 30.29 in 10.0 mi East 10.4 mph - N/A   Clear
8:15 PM 33.8 °F 26.4 °F -0.4 °F 23% 30.29 in 10.0 mi East 9.2 mph 16.1 mph N/A   Clear
8:35 PM 32.0 °F 24.2 °F -0.4 °F 25% 30.29 in 10.0 mi East 9.2 mph - N/A   Clear
9:15 PM 32.0 °F 22.5 °F -0.4 °F 25% 30.30 in 10.0 mi East 12.7 mph - N/A   Clear
9:35 PM 32.0 °F 23.6 °F -0.4 °F 25% 30.31 in 10.0 mi ESE 10.4 mph - N/A   Clear
9:55 PM 33.8 °F 24.8 °F -0.4 °F 23% 30.31 in 10.0 mi ESE 12.7 mph - N/A   Clear
10:55 PM 33.8 °F 24.8 °F -2.2 °F 22% 30.31 in 10.0 mi East 12.7 mph - N/A   Clear
11:15 PM 33.8 °F 24.8 °F -2.2 °F 22% 30.31 in 10.0 mi East 12.7 mph - N/A   Clear
11:35 PM 33.8 °F 24.8 °F -2.2 °F 22% 30.30 in 10.0 mi East 12.7 mph 18.4 mph N/A   Clear
11:55 PM 33.8 °F 25.3 °F -2.2 °F 22% 30.30 in 10.0 mi East 11.5 mph - N/A   Clear